This is the latest recevied weather packets stored in our database for station/object KC3SOZ. If no packets are shown the sender has not sent any weather packets the latest 10 day(s).
| Time | Temp. | Humidity | Pressure | Rain* | Wind** | Luminosity | Snow |
|---|---|---|---|---|---|---|---|
| 1777692101 | 8.33° C | 99% | 1013.7 hPa | 3.05 mm | - | 0 W/m² | - |
| 1777691799 | 8.33° C | 99% | 1013.8 hPa | 1.78 mm | - | 0 W/m² | - |
| 1777691497 | 8.33° C | 99% | 1013.5 hPa | 1.27 mm | - | 0 W/m² | - |
| 1777691196 | 8.33° C | 99% | 1013.4 hPa | 0 mm | - | 0 W/m² | - |
| 1777690893 | 8.33° C | 99% | 1013.4 hPa | 0 mm | - | 0 W/m² | - |
| 1777690591 | 8.33° C | 99% | 1013.6 hPa | 1.78 mm | - | 0 W/m² | - |
| 1777690288 | 8.33° C | 99% | 1013.6 hPa | 1.78 mm | - | 0 W/m² | - |
| 1777689986 | 8.33° C | 99% | 1013.8 hPa | 0 mm | - | 0 W/m² | - |
| 1777689683 | 8.33° C | 99% | 1013.6 hPa | 0 mm | - | 0 W/m² | - |
| 1777689381 | 8.33° C | 99% | 1013.6 hPa | 0 mm | - | 0 W/m² | - |
| 1777689078 | 8.33° C | 99% | 1013.6 hPa | 1.27 mm | - | 0 W/m² | - |
| 1777688775 | 8.33° C | 99% | 1013.5 hPa | 1.27 mm | - | 0 W/m² | - |
| 1777688472 | 8.33° C | 99% | 1013.5 hPa | 0 mm | - | 0 W/m² | - |
| 1777688169 | 8.89° C | 99% | 1013.8 hPa | 0 mm | - | 0 W/m² | - |
| 1777687866 | 8.33° C | 99% | 1013.9 hPa | 0 mm | - | 0 W/m² | - |
| 1777687564 | 8.89° C | 99% | 1014 hPa | 0 mm | - | 0 W/m² | - |
| 1777687260 | 8.33° C | 99% | 1013.8 hPa | 0 mm | - | 0 W/m² | - |
| 1777686958 | 8.33° C | 99% | 1013.8 hPa | 0 mm | - | 0 W/m² | - |
| 1777686654 | 8.33° C | 99% | 1013.6 hPa | 0 mm | - | 0 W/m² | - |
| 1777686352 | 8.33° C | 99% | 1013.4 hPa | 0 mm | - | 0 W/m² | - |
| 1777686049 | 8.33° C | 99% | 1013.4 hPa | 0 mm | - | 0 W/m² | - |
| 1777685744 | 8.33° C | 99% | 1013.3 hPa | 0 mm | - | 0 W/m² | - |
| 1777685441 | 8.33° C | 99% | 1013.3 hPa | 0 mm | - | 0 W/m² | - |
| 1777685138 | 8.33° C | 99% | 1013.2 hPa | 0 mm | - | 0 W/m² | - |
| 1777684836 | 8.33° C | 99% | 1013.1 hPa | 0 mm | - | 0 W/m² | - |
* Rain latest hour (hover to see other rain measurements)
** Current wind speed in m/s (hover to see current wind gust speed)